STARLINK-11242, 60903

Orbit data source: Space-Track

STARLINK-11242, 60903 is a payload satellite owned by SpaceX/Seattle (US) in LEO that was launched on Sat, 31 Aug 2024 UTC via an FALCON 9 launch vehicle from the Air Force Eastern Test Range (AFETR). Payload-class satellites include a variety of spacecraft equipped with specific instruments for various scientific and technological missions. These include communications satellites like Starlink; space stations such as the ISS; scientific satellites like the Hubble; Earth observation satellites from companies like Planet Labs, Umbra, and HawkEye 360; GPS; miniature CubeSats for education and research; and military/defense satellites.

Loading next visibility...
Identifier
60903, 2024-154A
Orbit
LEO
Country
Flag of USUS
Related business
Manufacturer
SpaceX/Seattle
Mission
Operational Commercial Communications
Bus & Motor
STARLINK V2MD, Unknown motor
Mass
960 kg wet, ~910 kg dry
Launch date (UTC)
2024-08-31 (2 years ago)
Launch vehicle
FALCON 9
Launch site
Air Force Eastern Test Range (AFETR)
Object type
Payload
Rocket body
Debris
Shape & HBR
Box + 2 Pan, 18.1 m
Radar Cross Section
36.964 m², Large (>1 m²)

Expand to show TLE details & history
Last TLE update: 1 day ago

TLE from 1 day ago
0 STARLINK-11242
1 60903U 24154A   26129.46688607 -.00001893  00000-0 -10777-4 0  9998
2 60903  53.1589 191.3984 0001017  49.7960 310.3147 15.69691970 98065
Epoch: 2026-05-09T11:12Z
TLE epoch observation values (Epoch: 2026-05-09T11:12:18.956Z)
Latitude
-0°
Longitude
156.03551°
Altitude
360.25 km
Speed
7.695 km/s
True Right ascension
12h 45m 35s
True Declination
0° 00' 00"
Sunlit
Object was in full shadow at epoch
Visualization orbit readout
Latitude
Unknown
Longitude
Unknown
Altitude
Unknown
Speed
Unknown
Apparent Right ascension
Unknown
Apparent Declination
Unknown
Sunlit
N/A
Visualization observer readout
Local Sidereal Time
19:51:05
Azimuth
Unknown
Elevation
Unknown
Doppler factor
Unknown
Orbital elements
Apogee altitude
360.724 km
Perigee altitude
359.354 km
Semi-major axis
6,738.176 km
Eccentricity
0.0001
Inclination
53.1589°
RAAN
191.3984°
Arg. of periapsis
49.796°
True anomaly
310.30581°
Mean anomaly
310.3147°
Eccentric anomaly
310.31026°
Mean motion
3.92401 °/min
Orbital period
91.74 mins
BSTAR
-0.000010777
Loading maneuver chart data...
Computing Atmospheric mass density...
Loading historical data...
Loading historical data...
Loading historical data...
Loading historical data...
Loading historical data...
Loading historical data...
Loading historical data...

Documentation

Showing up to 5 results
|